Tracking 17138 objects as of 7-July-2015
HD Live streaming from Space Station

METEOSAT 9 (MSG 2)

Track METEOSAT 9 (MSG 2) now!
METEOSAT 9 (MSG 2) is classified as:


NORAD ID: 28912
Int'l Code: 2005-049B
Perigee: 35,788.8 km
Apogee: 35,797.0 km
Inclination: 0.9 °
Period: 1,436.1 minutes
Semi major axis: 42163 km
RCS: 2.0767 m2 (large)
Launch date: December 21, 2005
Source: European Organisation for the Exploitation of Meteorological Satellites (EUME)
Your satellite tracking list
Your tracking list is empty





NASA's NSSDC Master Catalog

Two Line Element Set (TLE):
1 28912U 05049B   15187.07283818  .00000050  00000-0  00000+0 0  9993
2 28912 000.8546 058.0879 0000975 196.0353 065.0468 01.00274844 34974

Source of the keplerian elements: AFSPC

N2YO: 422